User: anonymous   Login
Location: Unspecified
(0.0000°N, 0.0000°E)
Time: 09:16:31
(UTC+02:00)
Language:

Iridium 4 Rocket - Orbit

View from above orbital plane
View from above orbital plane
View from above satellite
View from above satellite

Ground track
Ground track

The orbit data is extracted from the following two-line orbital elements,

1 24797U 97020F   15106.93555177  .00001062  00000-0  22177-3 0  9993
2 24797 086.8914 283.3878 0228807 078.3011 081.4984 14.43571917943634
Epoch (UTC): 16 April 2015 22:27:11
Eccentricity: 0.0228807
inclination: 86.8914°
perigee height: 584 km
apogee height: 910 km
right ascension of ascending node: 283.3878°
argument of perigee: 78.3011°
revolutions per day: 14.43571917
mean anomaly at epoch: 81.4984°
orbit number at epoch: 94363

The dashed part of the orbit path shows where the satellite is in the earth's shadow,  

DLR